Regional Weather Roundup
Issued by NWS Cleveland, OH

Home | Current Version | Previous Version | Graphics & Text | Print | Product List | Glossary On
Versions: 1 2 3 4 5 6 7 8 9 10 11 12 13 14 15 16 17 18 19 20 21 22 23 24 25 26 27 28 29 30 31 32 33 34 35 36 37 38 39 40 41 42 43 44 45 46 47 48 49 50
000
ASUS41 KCLE 270010
RWRCLE
OHIO REGIONAL WEATHER ROUNDUP
NATIONAL WEATHER SERVICE CLEVELAND, OH
700 PM EST THU FEB 26 2015

NOTE: "FAIR" INDICATES FEW OR NO CLOUDS BELOW 12,000 FEET WITH NO
SIGNIFICANT WEATHER AND/OR OBSTRUCTIONS TO VISIBILITY.

OHZ001>008-015>018-024>027-034-035-043-044-270100-
   NORTHWEST OHIO

CITY           SKY/WX    TMP DP  RH WIND       PRES   REMARKS
DEFIANCE       CLOUDY    15   4  61 N8        30.25R WCI   4
FINDLAY        FLURRIES  13   6  74 NW3       30.22R
TOLEDO EXPRESS CLOUDY    13   2  61 N8        30.24R WCI   2
TOLEDO EXEC    CLOUDY    14   5  67 NW8       30.25R WCI   3
LIMA           CLOUDY    13   6  74 N3        30.22R
$$

OHZ009>014-019>023-028>033-038-089-270100-
   NORTHEAST OHIO

CITY           SKY/WX    TMP DP  RH WIND       PRES   REMARKS
CLE-HOPKINS    CLOUDY    10   3  73 N9        30.24R WCI  -3
CLE-LAKEFRONT  CLOUDY    10   4  76 N6        30.22R WCI   0
CUY CO. ARPT   MOCLDY    12   7  79 N12       30.20R WCI  -2
LORAIN-ELYRIA  CLOUDY    10   4  76 N8        30.22R WCI  -2
ASHTABULA      CLOUDY     8   3  80 N7        30.17R WCI  -3
AKRON-CANTON   FLURRIES  11   1  64 N15       30.15R WCI  -5
WOOSTER        CLOUDY    10   2  69 N13       30.17R WCI  -5
MANSFIELD      CLOUDY     9   3  77 N9        30.18R WCI  -4
YOUNGSTOWN     CLOUDY    10   3  73 N16       30.13R WCI  -7
$$

OHZ042-051>053-060>062-070>072-077>081-270100-
  SOUTHWEST OHIO

CITY           SKY/WX    TMP DP  RH WIND       PRES   REMARKS
CINC-COVINGTON FLURRIES  18  10  71 N12       30.21R WCI   5
CINC-LUNKEN    CLOUDY    17  10  74 N13       30.26R WCI   4
HAMILTON       CLOUDY    16   8  71 N8        30.26R WCI   5
DAYTON         LGT SNOW  14   8  77 N10       30.23R WCI   1
WRIGHT-PAT AFB FLURRIES  14   5  68 N8        30.23R WCI   3
DAYTON GENERAL FLURRIES  15   7  70 N14       30.21R WCI   0
WILMINGTON     CLOUDY    14   7  73 N15       30.18R WCI  -1
$$

OHZ036-037-039>041-045>050-054>059-063>069-073>076-082>088-270100-
  CENTRAL AND SOUTHEAST OHIO

CITY           SKY/WX    TMP DP  RH WIND       PRES   REMARKS
COLUMBUS       LGT SNOW  14   5  67 N14       30.19R WCI  -1
OSU AIRPORT    LGT SNOW  13   5  70 N17       30.19R WCI  -4
BOLTON FIELD   LGT SNOW  14   7  73 N14       30.19R WCI  -1
RICKENBACK AFB CLOUDY    15   7  70 N15       30.18R WCI   0
NEWARK         CLOUDY    17   6  62 N8        30.16R WCI   7
MARION         CLOUDY    11   3  70 N13       30.21R WCI  -4
LANCASTER      FLURRIES  18   8  65 N9        30.17R WCI   7
ZANESVILLE     CLOUDY    16   6  65 N7        30.16R WCI   6
NEW PHILLY     CLOUDY    17   6  62 N9        30.17R WCI   6
$$


USA.gov is the U.S. government's official web portal to all federal, state and local government web resources and services.